Location: ??????
(42.0089°N, 44.3281°E)
Time: 18:58:21
(UTC+00:00)

NOSS 3-1 (A) - Pass Details

Date: 24 October 2021
Orbit: 721 x 1491 km, 63.4° (Epoch: 22 November)

Event Time Altitude Azimuth Distance (km) Brightness Sun altitude
Rises 16:00:19 0° 225° (SW) 3,175 6.8 -21.6°
Reaches altitude 10° 16:02:35 10° 229° (SW) 2,301 6.1 -22.0°
Maximum altitude 16:07:45 61° 310° (NW) 955 3.6 -23.0°
Enters shadow 16:12:29 17° 27° (NNE) 2,199 5.1 -23.9°
